Location: ??
(35.5052°N, 139.7262°E)
Time: 02:20:46
(UTC+00:00)

N. Korean satellite - Visible Passes

Search period start: 27 September 2021 00:00
Search period end: 07 October 2021 00:00
Orbit: 449 x 498 km, 97.3° (Epoch: 26 September)

Date Brightness Start Highest point End Pass type
(mag) Time Alt. Az. Time Alt. Az. Time Alt. Az.
27 Sep 6.6 19:53:48 10° NNE 19:57:23 84° ESE 20:01:01 10° S visible
28 Sep 8.5 19:26:18 10° NNE 19:29:33 32° E 19:32:50 10° SSE visible
29 Sep 9.9 18:59:39 10° ENE 19:01:36 14° E 19:03:35 10° SE visible
30 Sep 6.5 20:03:31 10° N 20:07:06 70° WNW 20:10:43 10° SSW visible
01 Oct 7.9 19:35:48 10° NNE 19:39:16 44° E 19:42:46 10° S visible
02 Oct 9.5 19:08:42 10° NE 19:11:20 19° E 19:13:58 10° SE visible
04 Oct 7.1 19:45:16 10° NNE 19:48:52 63° E 19:52:29 10° S visible
05 Oct 9.0 19:17:52 10° NE 19:20:56 25° E 19:23:59 10° SSE visible
06 Oct 10.2 18:51:51 10° ENE 18:52:52 11° E 18:53:54 10° ESE visible
